www.pogodaiklimat.ru

Погода и климат >> Архив погоды >> Россия >> Краснодарский край >> Отрадная


ПОГОДА в Отрадной

  • Прогноз погоды в Отрадной
  • Монитор погоды в Отрадной

АРХИВ ПОГОДЫ в Отрадной

Время (UTC), дата Ветер
(напр.,м/с)
 
Видим.   Явления Облачность Т
(С)
Тd
(С)
f
(%)
Тe
(С)
Тes
(С)
Комфортность P
(гПа)
Po
(гПа)
Тmin
(С)
Tmax
(С)
R
(мм)
R24
(мм)
S
(см)
15 13.09 СВ 5
{12}
10 км ясно +21.9 +2.0 27 +22 +22 комфорт 1019.2 964.9 +24.5
18 13.09 В 3 10 км ясно +17.8 +3.0 37 +18 +18 1020.6 965.5
21 13.09 В 2 10 км ясно +13.1 +3.9 54 +13 +13 1020.9 964.9
00 14.09 ЮВ 2 10 км ясно +5.9 +2.4 78 +4 +4 1021.8 964.4
03 14.09 ЮВ 1 20 км ясно +4.8 +1.9 81 +4 +4 1022.4 964.6 +4.8
06 14.09 ЮВ 3 20 км ясно +16.5 +6.2 51 +16 +21 1019.9 964.6 +4.5
09 14.09 З 1 20 км ясно +24.9 +4.8 27 +24 +38 комфорт 1016.8 963.2
12 14.09 ЮЗ 5 20 км 3/3 600 м
[Cu hum]
+26.6 +2.5 21 +25 +28 комфорт 1015.7 962.4
15 14.09 З 4 20 км ясно +23.8 +3.2 26 +23 +23 комфорт 1016.0 962.2 +26.7
18 14.09 Ю 1 10 км 9/0
[Ac trans]
+18.4 +5.0 41 +20 +20 1017.5 962.7
21 14.09 ЮВ 3 10 км 4/0
[Ac trans]
+13.1 +6.6 65 +12 +12 1019.0 963.1
00 15.09 ЮВ 5 10 км 8/0
[Ac trans]
+12.2 +7.3 72 +10 +10 1019.5 963.5
03 15.09 ЮВ 4 20 км 3/0
[Ac trans]
+10.6 +6.8 77 +8 +8 1020.2 963.8 +10.2
06 15.09 ЮВ 3 20 км 3/0
[Ac trans]
+18.9 +7.8 48 +20 +23 1019.3 964.5
09 15.09 З 4 20 км 3/0
[Ac trans]
+25.2 +2.4 23 +24 +31 комфорт 1017.4 963.8
12 15.09 З 5
{11}
20 км 3/0
[Ac trans]
+25.5 +2.6 23 +24 +27 комфорт 1017.2 963.6
15 15.09 З 3 20 км 3/0
[Ac trans]
+23.2 +0.9 23 +22 +22 комфорт 1018.2 964.2 +25.9
18 15.09 В 1 10 км 3/0
[Ac trans]
+18.2 +2.5 35 +19 +19 1020.6 965.5
21 15.09 В 1 10 км ясно +13.0 +3.2 51 +13 +13 1021.1 965.1
00 16.09 ЮВ 1 20 км ясно +9.1 +4.2 71 +9 +9 1021.7 964.9
03 16.09 ЮВ 2 10 км ясно +8.6 +4.8 77 +7 +7 1020.7 963.8 +7.3
06 16.09 ЮВ 3 20 км ясно +16.7 +6.3 50 +17 +21 1017.7 962.6
09 16.09 СВ 2 20 км ясно +25.4 +3.3 24 +24 +36 комфорт 1014.0 960.5
12 16.09 С 2 20 км ясно +27.5 +1.8 19 +26 +32 жарко 1011.2 958.3
15 16.09 С 2 20 км ясно +25.6 +2.7 23 +24 +25 комфорт 1011.4 958.1 +27.8
18 16.09 штиль 0 10 км ясно +19.3 +4.5 38 +20 +20 1013.7 959.2
21 16.09 ЮВ 3 10 км 4/0
[Ci fib]
+14.0 +6.1 59 +13 +13 1015.0 959.5
00 17.09 ЮВ 2 10 км 10/10 600 м
[Sc diur, vesp]
+14.5 +8.2 66 +14 +14 1014.2 958.9
03 17.09 штиль 0 10 км 10/10 600 м
[Sc diur, vesp]
+14.0 +8.0 67 +14 +14 1014.6 959.1 +13.7
06 17.09 ЮВ 4 10 км 10/10 600 м
[Sc]
+15.9 +9.6 66 +15 +15 1014.4 959.3
09 17.09 В 1 10 км {ливн. осадки} 10/10 600 м
[Sc]
+15.0 +9.6 70 +16 +16 1014.4 958.0
12 17.09 В 1 10 км {ливн. осадки} 10/10 600 м
[Sc diur, vesp]
+17.6 +12.6 72 +19 +19 1012.1 957.5
15 17.09 В 3 10 км 9/9 600 м
[Sc diur, vesp]
+18.2 +15.0 82 +19 +19 1011.3 956.9 +18.8 3
18 17.09 Ю 3 10 км 8/8 600 м
[Sc]
+15.3 +9.7 69 +15 +15 1013.4 958.3
21 17.09 Ю 1 10 км 4/0
[Ac As]
+10.4 +7.4 82 +10 +10 1014.9 958.8
00 18.09 ЮВ 2 10 км ясно +7.9 +6.4 90 +6 +6 1015.4 958.7
03 18.09 ЮВ 2 10 км ясно +7.6 +6.2 91 +5 +5 1015.4 958.7 +7.3
06 18.09 В 3 50 км 3/0
[Ac trans]
+15.7 +11.0 74 +15 +19 1014.4 959.3 +7.3
09 18.09 В 2 50 км 3/0
[Ac trans]
+26.1 +1.6 20 +25 +34 комфорт 1011.4 958.2
12 18.09 Ю 3
{10}
20 км 3/0
[Ac trans]
+29.3 -1.4 14 +26 +31 жарко 1009.5 957.0
15 18.09 ЮЗ 2 20 км 4/0
[]
+25.9 +2.8 22 +25 +25 комфорт 1009.8 956.7 +29.6
18 18.09 ЮВ 4 10 км ясно +16.6 +6.7 52 +16 +16 1013.0 958.1
21 18.09 З 6-10
{11}
10 км ясно +16.2 +10.6 69 +15 +15 1015.6 960.5
00 19.09 Ю 1
{10}
10 км 10/10 600 м
[Sc diur, vesp]
+15.0 +9.5 70 +16 +16 1017.7 962.3
03 19.09 ЮЗ 3 10 км 10/10 600 м
[Sc diur, vesp]
+14.6 +9.9 73 +14 +14 1018.6 963.1 +13.2
06 19.09 С 2 10 км 10/10 600 м
[Sc diur, vesp]
+13.7 +8.2 69 +13 +13 1020.6 964.7 +11.9
09 19.09 СВ 2 10 км 10/10 600 м
[Sc diur, vesp]
+17.1 +7.0 51 +17 +17 1019.5 964.4
12 19.09 СЗ 3 10 км 8/8 600 м
[Sc diur, vesp]
+19.7 +5.9 40 +21 +22 комфорт 1018.7 964.0
15 19.09 СЗ 3 10 км 10/10 600 м
[Sc diur, vesp]
+16.6 +2.1 38 +16 +16 1020.0 964.7 +20.1
18 19.09 Ю 2 н/о н/о +12.8 +2.7 50 +12 +12 1020.7 964.6
21 19.09 Ю 3 н/о н/о +9.1 +2.9 65 +7 +7 1020.7 963.9
00 20.09 В 3 10 км 10/10 600 м
[Sc diur, vesp]
+10.4 +5.4 71 1020.5
03 20.09 ЮЗ 2 10 км 10/10 600 м
[Sc diur, vesp]
+7.9 +2.4 68 +6 +6 1019.6 962.7 +7.8
06 20.09 С 2 20 км 8/8 600 м
[Sc diur, vesp]
+14.6 +3.3 47 +14 +15 1017.4 961.8 +7.6
09 20.09 В 3 20 км 6/0
[Ac trans]
+20.0 +3.3 33 +21 +27 комфорт 1013.3 958.9
12 20.09 В 4 20 км 8/8 600 м
[Sc diur, vesp]
+20.9 +4.8 35 +22 +23 комфорт 1010.6 956.5

 

Местоположение метеостанции Отрадная (Краснодарский край, Россия): широта 44.40 долгота 41.48 высота над уровнем моря 477 м.

В архиве по умолчанию представлена погода в Отрадной за последнюю неделю. Архивные данные за месяц целиком и за предыдущие месяцы, начиная с января 2011 года, Вы можете получить, выбрав интересующий диапазон дат из раскрывающегося списка и нажав кнопку "Ввод!".


*Определитесь, кто Вы:
робот инопланетянин человек

Внимание! Время в таблицах - всемирное. Для получения местного времени необходимо прибавить поправку, которая равна 3 ч.

Смотрите также архив погоды в соседних городах и на ближайших метеорологических станциях:

Погода в Невинномысске (Ставропольский край, Россия) (47 км)
Погода в Черкесске (Карачаево-Черкессия, Россия) (51 км)
Погода в Зеленчукской (Карачаево-Черкессия, Россия) (59 км)
Погода в Псебае (Краснодарский край, Россия) (63 км)
Погода в Лабинске (Краснодарский край, Россия) (65 км)
Погода в Даховской (Адыгея, Россия) (65 км)
Погода в Армавире (Краснодарский край, Россия) (71 км)
Погода в Ставрополе (Ставропольский край, Россия) (93 км)
Погода в Дондуковской (Адыгея, Россия) (103 км)
Погода в Теберде (Карачаево-Черкессия, Россия) (108 км)

Пояснения к столбцам:

Ветер - указаны скорость ветра в м/с - средняя за 10 мин, порывы в срок и между сроками (в фигурных скобках) и направление, откуда дует ветер: С - северный, СВ - северо-восточный, В - восточный, ЮВ - юго-восточный, Ю - южный, ЮЗ - юго-западный, З - западный, СЗ - северо-западный.
Видимость - горизонтальная дальность видимости в метрах или километрах. При видимости от 1 до 10 км при отсутствии осадков обычно наблюдается дымка, при ухудшении видимости до 1 км и менее - туман. В сухую погоду видимость может ухудшаться дымом, пылью или мглою.
Явления - указаны атмосферные явления, наблюдавшиеся в срок или в последний час перед сроком; фигурными скобками обозначены явления, наблюдавшиеся между сроками (за 1-3 часа до срока); квадратными скобками обозначены град или гололедные отложения с указанием их диаметра в мм.
Облачность - указаны через наклонную черту общая и нижняя облачность в баллах и высота нижней границы облаков в метрах; квадратными скобками обозначены формы облаков: Ci - перистые, Cs - перисто-слоистые, Cc - перисто-кучевые, Ac - высококучевые, As - высокослоистые, Sc - слоисто-кучевые, Ns - слоисто-дождевые, Cu - кучевые, Cb - кучево-дождевые. Подробнее классификацию облаков см. в Атласе облаков (PDF).
T - Температура воздуха - температура, измеренная на высоте 2 м над землей.
Td - Температура точки росы - температура, при понижении до которой содержащийся в воздухе водяной пар достигнет насыщения.
f - Относительная влажность воздуха - влажноcть воздуха, измеренная на высоте 2 м над землей.
Te - Эффективная температура - температура, которую ощущает одетый по сезону человек в тени. Характеристика душности погоды. При расчете учитывается влияние влажности воздуха и скорости ветра на теплоощущения человека.
Tes - Эффективная температура на солнце - температура, которую ощущает человек, с поправкой на солнечный нагрев. Характеристика знойности погоды. Зависит от высоты солнца над горизонтом, облачности и скорости ветра. Ночью, в пасмурную погоду, а также при ветре 12 м/с и более поправка равна нулю.
P - Атмосферное давление - приведенное к уровню моря атмосферное давление.
Po - Атмосферное давление - измеренное на уровне метеостанции атмосферное давление.
Tmin - Минимальная температура - минимум температуры воздуха на высоте 2 м над землей.
Tmax - Максимальная температура - максимум температуры воздуха на высоте 2 м над землей.
R - Количество осадков - Количество выпавших осадков за период времени, мм. При наведении курсора мыши на число - период времени, за который выпало указанное количество осадков.
R24 - Количество осадков - Количество выпавших осадков за 24 часа, мм.
S - Снежный покров - Высота снежного покрова, см. При наведении курсора мыши на число - состояние снежного покрова и степень покрытия местности в баллах.